Regional Weather Roundup
Issued by NWS

Home | Current Version | Previous Version | Graphics & Text | Print | Product List | Glossary Off
Versions: 1 2 3 4 5 6 7 8 9 10 11 12 13 14 15 16 17 18 19 20 21 22 23 24 25 26 27 28 29 30 31 32 33 34 35 36 37 38 39 40 41 42 43 44 45 46 47 48 49 50

000
ASUS45 KCYS 210210
RWRWY

WYOMING REGIONAL WEATHER ROUNDUP
NATIONAL WEATHER SERVICE CHEYENNE WY
800 PM MDT MON APR 20 2015

NOTE:  "FAIR" INDICATES FEW OR NO CLOUDS BELOW 12,000 FEET
WITH NO SIGNIFICANT WEATHER AND/OR OBSTRUCTIONS TO VISIBILITY.

WYZ001-210300-
YELLOWSTONE NATIONAL PARK

CITY           SKY/WX    TMP DP  RH WIND       PRES   REMARKS
LK YELLOWSTONE   N/A     43  15  32 VRB3      29.98S
W YELLOWSTONE  NOT AVBL

$$
WYZ002>013-054>058-071-098>099-210300-
NORTHERN WYOMING

CITY           SKY/WX    TMP DP  RH WIND       PRES   REMARKS
JACKSON        PTCLDY    54  19  26 CALM      29.92S
CODY           FAIR      54  25  32 CALM      29.89S
GREYBULL       FAIR      57  19  22 NW7       29.84F
WORLAND        FAIR      51  23  33 NE6       29.86S
SHERIDAN       FAIR      44  27  51 NW6       29.87S
BUFFALO        FAIR      46  24  42 N7        29.89S
GILLETTE       FAIR      41  19  41 NW8       29.88R
HULETT         FAIR      45  18  33 N13       29.88R
NEWCASTLE      FAIR      45  18  33 NW12      29.86R

$$
WYZ014>020-022>026-101>103-210300-
CENTRAL WYOMING

CITY           SKY/WX    TMP DP  RH WIND       PRES   REMARKS
BIG PINEY      FAIR      50  12  21 N12       29.93R
PINEDALE       MOCLDY    46  18  31 NW12      29.94R
DUBOIS         FAIR      45  14  29 W13       29.92S
LANDER         FAIR      49  25  39 NE8       29.88R
RIVERTON       FAIR      50  21  32 NE8       29.90R
CASPER         FAIR      43  22  43 N6        29.89S
DOUGLAS        FAIR      45  26  47 N8        29.89R

$$
WYZ021-027>030-104>119-210300-
SOUTHERN WYOMING

CITY           SKY/WX    TMP DP  RH WIND       PRES   REMARKS
EVANSTON       FAIR      51  20  29 NW7       29.96R
KEMMERER       FAIR      50  21  32 W10       29.95S
FORT BRIDGER   CLEAR     52  19  28 NW8       29.98R
ROCK SPRINGS   MOCLDY    53  15  22 NW9       29.90R
DIXON          FAIR      47  30  52 CALM      29.93S
RAWLINS        FAIR      43  18  36 NE10      29.93R
SARATOGA       FAIR      43  28  56 NE6       29.95R
LARAMIE        FAIR      28  23  81 W8        29.94R WCI  20
CHEYENNE       FAIR      43  24  47 N8        29.92R
TORRINGTON     FAIR      48  23  37 N9        29.86R
PINE BLUFFS    FAIR      43  30  61 NW5       29.90S

$$


USA.gov is the U.S. government's official web portal to all federal, state and local government web resources and services.